�������l�o���
Date,Time,MP-1(��Sv/h),MP-2(��Sv/h),MP-3(��Sv/h),MP-4(��Sv/h),MP-5(��Sv/h),MP-6(��Sv/h),MP-7(��Sv/h),MP-8(��Sv/h),����,����(m/s),���J
2020/01/20,00:00,0.702,0.995,0.656,1.245,0.878,0.403,0.703,0.669,��쐼,7.7,��
2020/01/20,00:10,0.702,0.996,0.660,1.247,0.877,0.402,0.706,0.668,�쐼,6.0,��
2020/01/20,00:20,0.701,0.996,0.660,1.244,0.879,0.401,0.705,0.670,��쐼,5.5,��
2020/01/20,00:30,0.701,0.995,0.660,1.245,0.878,0.402,0.705,0.670,��쐼,5.8,��
2020/01/20,00:40,0.702,0.995,0.658,1.247,0.877,0.402,0.704,0.670,��쐼,6.9,��
2020/01/20,00:50,0.702,0.997,0.660,1.246,0.879,0.404,0.705,0.669,�쐼,5.8,��
2020/01/20,01:00,0.702,0.997,0.660,1.246,0.876,0.402,0.706,0.669,��쐼,5.5,��
2020/01/20,01:10,0.702,0.997,0.659,1.246,0.877,0.403,0.705,0.669,��쐼,6.3,��
2020/01/20,01:20,0.702,0.995,0.658,1.247,0.878,0.405,0.705,0.668,��쐼,6.7,��
2020/01/20,01:30,0.703,0.997,0.659,1.245,0.879,0.404,0.704,0.667,��쐼,7.7,��
2020/01/20,01:40,0.701,0.997,0.660,1.246,0.877,0.404,0.703,0.668,��쐼,7.2,��
2020/01/20,01:50,0.703,0.997,0.659,1.246,0.879,0.403,0.706,0.670,��쐼,7.1,��
2020/01/20,02:00,0.702,0.996,0.657,1.247,0.877,0.402,0.706,0.669,��쐼,5.8,��
2020/01/20,02:10,0.702,0.996,0.659,1.243,0.877,0.404,0.705,0.668,��쐼,4.9,��
2020/01/20,02:20,0.702,0.995,0.658,1.247,0.876,0.404,0.705,0.671,��쐼,4.2,��
2020/01/20,02:30,0.702,0.997,0.659,1.245,0.877,0.403,0.704,0.668,��쐼,4.1,��
2020/01/20,02:40,0.703,0.994,0.658,1.243,0.879,0.403,0.704,0.670,��쐼,5.2,��
2020/01/20,02:50,0.702,0.997,0.659,1.246,0.877,0.402,0.705,0.668,��쐼,4.0,��
2020/01/20,03:00,0.702,0.995,0.657,1.247,0.877,0.402,0.705,0.669,��쐼,4.9,��
2020/01/20,03:10,0.701,0.994,0.658,1.247,0.877,0.403,0.703,0.668,��쐼,5.5,��
2020/01/20,03:20,0.704,0.996,0.659,1.245,0.877,0.403,0.704,0.670,�쐼,4.9,��
2020/01/20,03:30,0.703,0.995,0.658,1.246,0.879,0.402,0.704,0.670,�쐼,4.9,��
2020/01/20,03:40,0.703,0.996,0.659,1.244,0.877,0.401,0.706,0.670,��쐼,3.9,��
2020/01/20,03:50,0.702,0.996,0.657,1.244,0.878,0.401,0.704,0.670,��,2.9,��
2020/01/20,04:00,0.704,0.993,0.660,1.245,0.878,0.404,0.704,0.669,��쐼,2.3,��
2020/01/20,04:10,0.702,0.997,0.658,1.244,0.877,0.403,0.704,0.670,�쐼,2.0,��
2020/01/20,04:20,0.702,0.996,0.659,1.244,0.876,0.402,0.703,0.666,�쐼,1.5,��
2020/01/20,04:30,0.703,0.996,0.658,1.246,0.877,0.403,0.704,0.668,�쐼,2.3,��
2020/01/20,04:40,0.700,0.994,0.660,1.245,0.877,0.402,0.704,0.670,��쐼,2.6,��
2020/01/20,04:50,0.702,0.995,0.659,1.245,0.878,0.403,0.706,0.669,�쐼,1.7,��
2020/01/20,05:00,0.701,0.996,0.658,1.246,0.877,0.402,0.704,0.668,���쐼,3.4,��
2020/01/20,05:10,0.701,0.997,0.658,1.244,0.877,0.401,0.703,0.669,���쐼,6.9,��
2020/01/20,05:20,0.701,0.996,0.659,1.245,0.878,0.401,0.703,0.670,���쐼,7.1,��
2020/01/20,05:30,0.702,0.996,0.658,1.245,0.876,0.403,0.704,0.669,���쐼,7.2,��
2020/01/20,05:40,0.703,0.998,0.659,1.246,0.878,0.402,0.703,0.669,���쐼,7.7,��
2020/01/20,05:50,0.702,0.993,0.657,1.247,0.878,0.402,0.704,0.668,���쐼,7.7,��
2020/01/20,06:00,0.702,0.997,0.658,1.246,0.877,0.402,0.706,0.669,���쐼,7.1,��
2020/01/20,06:10,0.700,0.994,0.660,1.244,0.878,0.402,0.703,0.669,���쐼,6.9,��
2020/01/20,06:20,0.700,0.997,0.658,1.246,0.877,0.403,0.703,0.668,���쐼,6.4,��
2020/01/20,06:30,0.702,0.996,0.659,1.246,0.878,0.403,0.704,0.670,���쐼,7.2,��
2020/01/20,06:40,0.700,0.992,0.659,1.246,0.877,0.403,0.703,0.669,���쐼,7.2,��
2020/01/20,06:50,0.701,0.994,0.659,1.248,0.876,0.403,0.703,0.669,���쐼,7.4,��
2020/01/20,07:00,0.703,0.995,0.658,1.245,0.877,0.402,0.704,0.668,��,7.7,�L
2020/01/20,07:10,0.701,0.997,0.658,1.246,0.875,0.402,0.704,0.669,��,9.1,�L
2020/01/20,07:20,0.702,0.997,0.659,1.244,0.878,0.402,0.705,0.668,��,8.0,��
2020/01/20,07:30,0.702,0.995,0.656,1.249,0.877,0.404,0.706,0.669,��,8.6,��
2020/01/20,07:40,0.702,0.996,0.659,1.245,0.878,0.404,0.705,0.670,���쐼,7.1,�L
2020/01/20,07:50,0.701,0.998,0.658,1.246,0.879,0.402,0.703,0.668,���쐼,6.3,�L
2020/01/20,08:00,0.702,0.997,0.660,1.246,0.879,0.402,0.706,0.670,���쐼,7.1,��
2020/01/20,08:10,0.703,0.997,0.659,1.247,0.878,0.403,0.708,0.670,�쐼,6.9,��
2020/01/20,08:20,0.703,0.997,0.656,1.248,0.877,0.403,0.704,0.669,���쐼,5.6,��
2020/01/20,08:30,0.702,0.996,0.658,1.246,0.878,0.404,0.705,0.670,�쐼,5.5,��
2020/01/20,08:40,0.702,0.997,0.657,1.245,0.877,0.401,0.704,0.670,���쐼,5.8,��
2020/01/20,08:50,0.702,0.995,0.657,1.245,0.876,0.402,0.706,0.670,���쐼,7.4,��
2020/01/20,09:00,0.705,0.996,0.657,1.246,0.871,0.403,0.706,0.672,���쐼,7.4,��
2020/01/20,09:10,0.703,0.995,0.658,1.246,0.875,0.404,0.707,0.670,���쐼,8.2,��
2020/01/20,09:20,0.704,0.995,0.659,1.245,0.874,0.402,0.704,0.670,���쐼,7.4,��
2020/01/20,09:30,0.703,0.995,0.659,1.248,0.874,0.404,0.704,0.671,���쐼,5.8,��
2020/01/20,09:40,0.704,0.993,0.659,1.245,-,0.405,0.702,0.671,���쐼,5.8,��
2020/01/20,09:50,0.705,0.994,0.660,1.248,-,0.404,0.705,0.672,���쐼,8.6,��
2020/01/20,10:00,0.704,0.992,0.658,1.247,-,0.403,0.703,0.669,���쐼,7.2,��
2020/01/20,10:10,0.702,0.995,0.659,1.250,-,0.405,0.704,0.671,���쐼,5.8,��
2020/01/20,10:20,0.705,0.992,0.661,1.249,-,0.404,0.703,0.669,�쐼,6.9,��
2020/01/20,10:30,0.703,0.993,0.660,1.249,-,0.404,0.704,0.671,���쐼,7.4,��
2020/01/20,10:40,0.705,0.995,0.659,1.251,-,0.403,0.704,0.671,���쐼,6.9,��
2020/01/20,10:50,0.706,0.995,0.659,1.250,-,0.404,0.705,0.671,���쐼,7.8,��
2020/01/20,11:00,0.705,0.995,0.660,1.248,-,0.403,0.705,0.671,���쐼,8.5,��
2020/01/20,11:10,0.706,0.992,0.661,1.249,-,0.402,0.705,0.671,���쐼,8.6,��
2020/01/20,11:20,0.705,0.996,0.660,1.253,-,0.403,0.705,0.672,���쐼,7.4,��
2020/01/20,11:30,0.706,0.994,0.660,1.250,-,0.402,0.703,0.673,���쐼,8.3,��
2020/01/20,11:40,0.705,0.992,0.660,1.252,0.853,0.401,0.703,0.672,���쐼,7.2,��
2020/01/20,11:50,0.705,0.994,0.659,1.249,0.876,0.401,0.704,0.672,���쐼,9.7,��
2020/01/20,12:00,0.705,0.996,0.660,1.251,0.876,-,0.704,0.671,���쐼,9.7,��
2020/01/20,12:10,0.705,0.994,0.660,1.251,0.880,-,0.704,0.672,��,9.3,��
2020/01/20,12:20,0.705,0.998,0.659,1.249,0.878,0.391,0.702,0.672,���쐼,8.2,��
2020/01/20,12:30,0.706,0.996,0.661,1.251,0.881,0.394,0.703,0.672,���쐼,8.8,��
2020/01/20,12:40,0.706,0.998,0.660,1.251,0.879,0.397,0.705,0.672,��,6.6,��
2020/01/20,12:50,0.705,0.996,0.662,1.251,0.881,0.399,0.703,0.671,��,7.7,��
2020/01/20,13:00,0.707,0.997,0.661,1.254,0.881,0.399,0.703,0.671,��,5.5,��
2020/01/20,13:10,0.706,0.999,0.660,1.252,0.880,0.398,0.705,0.672,��,8.3,��
2020/01/20,13:20,0.705,0.996,0.661,1.251,0.879,0.399,0.703,0.671,��,8.2,��
2020/01/20,13:30,0.706,0.996,0.663,1.250,0.865,0.396,0.705,0.670,��,6.0,��
2020/01/20,13:40,0.706,0.992,0.661,1.251,0.851,0.397,0.705,0.669,��,5.5,��
2020/01/20,13:50,0.705,0.994,0.661,1.253,0.851,0.397,0.705,0.669,��,6.3,��
2020/01/20,14:00,0.707,0.995,0.662,1.254,0.852,0.395,0.706,0.668,��,5.0,��
2020/01/20,14:10,0.706,0.994,0.662,1.251,0.859,0.395,0.707,0.670,��,6.6,��
2020/01/20,14:20,0.708,0.998,0.662,1.251,0.861,0.396,0.706,0.668,���쐼,6.1,��
2020/01/20,14:30,0.705,0.996,0.660,1.252,0.848,0.391,0.706,0.668,���k��,5.3,��
2020/01/20,14:40,0.707,0.997,0.661,1.251,0.865,0.384,0.705,0.670,��,5.2,��
2020/01/20,14:50,0.706,0.993,0.662,1.253,0.863,0.396,0.705,0.670,��,3.1,��
2020/01/20,15:00,0.704,0.998,0.662,1.252,0.857,0.397,0.704,0.669,���k��,3.2,��
2020/01/20,15:10,0.703,0.998,0.660,1.251,0.860,0.389,0.705,0.671,�k�k��,3.4,��
2020/01/20,15:20,0.705,1.002,0.661,1.253,0.853,0.396,0.707,0.671,�k,3.1,��
2020/01/20,15:30,0.705,1.003,0.661,1.251,0.853,0.397,0.706,0.672,�k,3.3,��
2020/01/20,15:40,0.704,1.003,0.661,1.250,0.856,0.400,0.706,0.672,�k�k��,3.1,��
2020/01/20,15:50,0.705,1.001,0.662,1.252,0.848,0.404,0.705,0.672,�k,2.9,��
2020/01/20,16:00,0.705,1.003,0.661,1.253,0.868,0.405,0.706,0.671,�k,3.4,��
2020/01/20,16:10,0.704,1.001,0.660,1.251,0.881,0.404,0.706,0.671,�k�k��,2.1,��
2020/01/20,16:20,0.705,1.001,0.659,1.251,0.884,0.403,0.705,0.668,�k,2.4,��
2020/01/20,16:30,0.704,1.003,0.661,1.252,0.884,0.404,0.705,0.671,�k,4.2,��
2020/01/20,16:40,0.705,1.004,0.662,1.253,0.883,0.404,0.707,0.672,�k�k��,3.8,��
2020/01/20,16:50,0.705,1.003,0.662,1.250,0.883,0.403,0.706,0.672,�k�k��,4.5,��
2020/01/20,17:00,0.706,1.003,0.662,1.251,0.884,0.403,0.707,0.671,�k�k��,4.9,��
2020/01/20,17:10,0.706,1.003,0.662,1.252,0.882,0.402,0.708,0.670,�k�k��,5.2,��
2020/01/20,17:20,0.706,1.005,0.659,1.252,0.884,0.401,0.706,0.670,�k,5.5,��
2020/01/20,17:30,0.705,1.001,0.660,1.251,0.882,0.404,0.706,0.670,�k�k��,6.3,��
2020/01/20,17:40,0.705,1.003,0.660,1.252,0.884,0.401,0.707,0.669,�k�k��,6.6,��
2020/01/20,17:50,0.706,1.002,0.661,1.250,0.883,0.401,0.706,0.670,�k�k��,6.3,��
2020/01/20,18:00,0.704,1.004,0.661,1.251,0.884,0.401,0.706,0.672,�k,5.3,��
2020/01/20,18:10,0.705,1.002,0.661,1.251,0.883,0.403,0.705,0.670,�k�k��,4.5,��
2020/01/20,18:20,0.704,1.002,0.661,1.250,0.885,0.401,0.707,0.670,�k�k��,4.1,��
2020/01/20,18:30,0.704,1.005,0.660,1.254,0.882,0.401,0.707,0.671,�k�k��,4.1,��
2020/01/20,18:40,0.706,1.006,0.662,1.254,0.882,0.401,0.706,0.671,�k�k��,4.6,��
2020/01/20,18:50,0.704,1.004,0.662,1.254,0.882,0.400,0.705,0.669,�k�k��,4.1,��
2020/01/20,19:00,0.705,1.000,0.661,1.250,0.881,0.401,0.706,0.670,�k�k��,2.6,��
2020/01/20,19:10,0.705,1.004,0.660,1.250,0.882,0.401,0.705,0.669,�k�k��,2.8,��
2020/01/20,19:20,0.703,1.001,0.662,1.252,0.882,0.401,0.704,0.671,�k�k��,3.3,��
2020/01/20,19:30,0.703,1.005,0.663,1.250,0.882,0.401,0.704,0.671,�k�k��,3.8,��
2020/01/20,19:40,0.703,1.001,0.662,1.252,0.885,0.402,0.705,0.671,�k�k��,4.2,��
2020/01/20,19:50,0.703,1.004,0.660,1.252,0.881,0.401,0.706,0.670,�k�k��,3.8,��
2020/01/20,20:00,0.703,1.003,0.662,1.251,0.883,0.401,0.705,0.672,�k�k��,4.9,��
2020/01/20,20:10,0.703,1.003,0.663,1.252,0.882,0.402,0.705,0.670,�k,5.0,��
2020/01/20,20:20,0.703,1.001,0.660,1.253,0.884,0.401,0.706,0.670,�k,4.4,��
2020/01/20,20:30,0.703,1.002,0.662,1.252,0.884,0.401,0.706,0.672,�k�k��,4.3,��
2020/01/20,20:40,0.704,1.002,0.660,1.251,0.885,0.399,0.704,0.671,�k�k��,3.2,��
2020/01/20,20:50,0.704,1.001,0.661,1.254,0.885,0.402,0.705,0.671,�k�k��,3.6,��
2020/01/20,21:00,0.707,1.002,0.661,1.252,0.884,0.401,0.704,0.671,�k�k��,5.0,��
2020/01/20,21:10,0.702,1.004,0.662,1.254,0.884,0.401,0.705,0.669,�k�k��,4.9,��
2020/01/20,21:20,0.703,1.003,0.662,1.253,0.883,0.401,0.706,0.670,�k�k��,3.8,��
2020/01/20,21:30,0.704,1.003,0.662,1.251,0.882,0.399,0.705,0.671,�k�k��,1.7,��
2020/01/20,21:40,0.705,1.001,0.662,1.253,0.883,0.401,0.707,0.669,�k�k��,1.3,��
2020/01/20,21:50,0.705,1.001,0.662,1.251,0.882,0.402,0.705,0.670,�k,1.0,��
2020/01/20,22:00,0.705,1.002,0.662,1.252,0.883,0.402,0.708,0.672,�k�k��,0.8,��
2020/01/20,22:10,0.705,1.005,0.662,1.251,0.884,0.401,0.707,0.671,��,0.8,��
2020/01/20,22:20,0.703,1.002,0.664,1.251,0.884,0.401,0.706,0.670,���쐼,0.9,��
2020/01/20,22:30,0.705,1.004,0.662,1.251,0.882,0.400,0.707,0.669,��,1.5,��
2020/01/20,22:40,0.705,1.001,0.661,1.251,0.884,0.401,0.707,0.668,��,0.8,��
2020/01/20,22:50,0.704,1.003,0.662,1.252,0.885,0.400,0.706,0.671,���쐼,1.4,�L
2020/01/20,23:00,0.705,1.002,0.662,1.253,0.882,0.401,0.705,0.670,��쐼,1.2,�L
2020/01/20,23:10,0.705,1.002,0.661,1.254,0.884,0.400,0.705,0.671,��쐼,1.7,��
2020/01/20,23:20,0.705,1.003,0.661,1.252,0.884,0.401,0.706,0.670,��,2.1,��
2020/01/20,23:30,0.706,1.001,0.662,1.249,0.883,0.401,0.705,0.669,��쐼,1.4,��
2020/01/20,23:40,0.705,1.002,0.660,1.252,0.885,0.401,0.705,0.670,��쐼,1.3,��
2020/01/20,23:50,0.705,1.002,0.660,1.251,0.883,0.400,0.705,0.669,��쐼,1.1,�L
